Theta_e
313 310 309 312 314 315 317 322 321 319 323 324 326 332 341 350 348 352 356 359 359 361 362 363 363 363 363 363 362 362 362 361
307 306 311 315 314 315 316 320 322 321 317 325 330 330 341 351 350 353 354 356 360 361 361 362 361 362 362 362 363 363 362 361
306 306 308 314 316 315 314 316 318 320 317 321 330 344 348 352 352 352 352 355 362 360 361 361 361 361 361 362 361 361 361 361
302 304 307 311 314 314 313 314 317 316 316 322 331 341 349 353 353 351 351 355 360 360 359 359 360 360 359 359 359 360 360 359
303 304 307 310 314 312 312 312 313 316 314 323 327 331 349 352 354 351 352 354 360 357 358 359 359 358 358 358 358 358 358 358
302 300 302 310 312 313 312 311 315 316 315 318 320 328 343 351 353 351 351 352 358 357 354 354 354 359 358 358 358 358 358 358
301 301 302 309 307 311 312 310 312 315 315 317 319 333 340 346 349 349 348 350 355 355 355 353 353 354 357 357 358 358 357 357
306 306 305 306 306 307 307 308 310 313 317 318 318 328 333 340 342 345 345 347 352 356 356 354 349 354 353 350 351 353 353 354
306 307 308 306 305 308 305 305 309 310 314 316 317 320 331 334 340 342 346 348 351 356 360 356 352 352 350 348 348 350 353 355
306 307 306 305 307 305 307 308 311 311 313 315 316 318 321 330 334 342 345 348 352 356 360 360 354 351 351 348 348 348 349 354
306 306 305 306 304 305 306 310 312 312 312 313 314 316 322 325 329 340 345 348 352 355 359 360 359 353 353 352 350 352 351 354
305 306 306 304 305 305 308 311 311 311 312 313 314 315 318 323 327 332 344 348 353 356 360 360 361 361 357 356 354 353 352 353
305 306 305 307 302 303 308 309 309 310 311 312 313 315 316 319 325 331 336 348 353 356 358 361 359 358 360 356 355 353 353 357
304 303 304 303 298 305 308 308 308 309 310 311 313 314 317 320 323 328 336 344 353 353 356 360 360 359 357 355 355 354 353 355
299 303 302 301 299 305 308 308 307 309 310 311 312 315 318 321 322 325 330 340 351 357 355 358 360 358 358 359 356 354 356 355
296 301 302 300 301 304 307 307 308 309 310 311 312 313 317 320 322 323 326 331 339 349 357 359 358 358 355 354 354 353 353 353
299 302 301 300 301 304 307 307 307 308 309 310 312 315 317 319 321 322 326 330 333 335 351 355 353 352 351 349 351 351 352 353
300 302 301 301 300 304 306 307 308 308 309 310 312 314 315 317 319 322 325 329 332 336 339 350 351 352 350 349 350 352 353 354
297 300 302 300 298 301 305 307 308 309 310 311 311 312 314 316 318 321 323 326 329 334 338 341 351 349 351 352 352 350 351 351
298 297 293 301 291 299 303 304 306 308 309 311 312 313 314 315 317 319 320 323 327 330 335 337 344 347 355 347 343 346 350 351
Wind_Speed
5 8 11 2 5 1 5 2 2 3 3 1 4 5 4 8 12 16 16 17 17 15 14 14 13 13 13 15 16 15 15 14
10 11 3 4 4 2 1 3 3 4 5 5 4 1 4 14 14 16 17 17 18 16 15 14 13 13 14 14 13 14 15 14
10 12 3 5 2 4 2 1 2 5 6 4 7 6 7 14 13 15 16 16 17 15 17 17 16 14 12 14 13 12 12 13
14 14 8 8 5 7 5 1 2 2 5 5 8 5 7 10 11 14 16 16 17 16 14 13 14 15 15 13 13 13 11 11
16 13 14 9 3 9 5 6 1 7 6 5 12 7 3 7 8 11 13 14 15 17 15 13 14 13 13 14 13 12 12 10
10 12 18 7 9 2 8 5 7 3 5 5 10 4 6 7 9 11 13 14 15 15 16 15 14 12 13 12 12 12 10 9
17 14 10 4 9 5 3 10 6 6 5 5 8 5 8 9 10 12 12 14 14 16 16 15 15 14 13 15 14 11 11 9
2 7 7 3 6 8 7 7 10 8 8 7 6 3 9 11 11 13 15 16 14 15 15 15 12 14 14 13 13 13 13 13
7 6 6 7 10 10 9 11 7 8 9 8 7 4 8 12 14 13 13 12 15 14 14 16 13 10 9 9 9 10 14 13
7 6 10 11 9 9 11 11 9 5 8 11 8 5 6 11 13 11 12 13 14 15 14 15 11 11 11 10 10 9 12 13
9 10 10 10 11 12 8 10 8 7 5 7 5 8 4 8 13 10 12 12 14 15 15 14 14 11 12 11 10 11 11 13
8 11 9 12 13 5 10 8 9 6 6 5 6 7 8 6 9 12 11 12 13 15 15 16 15 14 11 12 12 12 12 13
14 14 11 10 16 15 13 6 11 10 8 7 8 8 10 11 8 10 13 13 14 15 16 16 18 16 12 12 12 13 13 14
7 4 6 8 13 6 3 8 10 7 7 6 7 8 9 12 13 9 10 13 14 13 17 18 17 14 12 13 12 11 7 9
8 3 7 10 8 5 7 7 7 9 8 7 7 8 7 9 11 14 10 11 11 14 15 16 15 12 13 14 12 12 12 14
13 6 6 10 13 12 11 12 12 12 10 10 9 10 8 6 8 9 9 9 12 12 13 13 10 11 11 11 12 12 13 14
11 8 10 15 15 13 13 13 14 13 13 12 12 11 9 8 6 7 9 7 7 12 13 11 10 11 12 12 12 12 13 17
12 11 9 15 17 15 13 17 16 16 15 15 14 13 12 12 11 8 10 11 10 11 13 13 11 11 11 11 11 11 12 13
13 13 13 17 20 20 18 18 14 16 18 16 16 13 12 10 9 10 10 11 12 11 9 12 14 11 10 11 9 12 13 12
15 15 14 10 15 17 17 16 14 18 17 14 12 10 9 11 12 12 11 10 10 11 11 10 12 12 15 13 14 13 13 13
Wind_Direction
270 248 251 213 167 335 328 125 189 183 306 110 95 106 96 96 149 155 159 161 156 155 147 148 155 155 153 148 148 152 153 155
249 239 268 311 131 348 39 98 18 6 148 146 51 79 68 142 154 157 165 165 138 156 148 149 157 156 149 142 147 153 156 157
242 245 223 248 255 315 279 325 10 316 109 114 107 66 122 150 161 166 165 168 158 165 157 155 157 155 148 146 147 156 160 160
232 231 215 235 235 281 261 306 344 332 305 96 95 101 126 157 170 173 166 168 161 164 159 155 155 158 154 153 154 156 161 166
249 237 244 239 242 253 285 269 56 321 275 107 90 38 140 164 167 167 166 171 161 173 169 159 158 161 160 158 159 161 164 169
237 238 248 214 247 256 255 283 322 264 198 171 357 350 161 183 169 174 174 178 171 179 177 179 176 168 167 165 166 169 170 168
228 234 247 200 245 146 296 266 277 283 276 340 332 321 176 177 181 180 182 183 186 181 181 186 181 177 176 176 172 172 175 176
255 245 241 190 277 304 281 246 261 247 257 282 311 265 240 191 193 192 187 187 187 190 185 188 187 175 195 191 194 194 194 189
213 243 245 263 260 250 254 256 236 270 278 287 303 256 253 229 212 198 191 196 193 191 189 196 194 184 192 192 197 200 203 200
253 250 252 251 264 255 240 257 257 279 300 290 283 279 254 234 236 207 201 203 197 189 195 202 196 193 194 199 196 199 200 202
244 254 254 266 250 261 251 250 250 287 261 242 256 295 298 284 281 237 214 208 207 198 197 199 211 197 204 201 197 202 201 197
239 239 231 249 253 212 229 208 249 248 237 237 277 282 287 242 250 245 239 225 215 205 199 203 206 215 205 201 196 204 203 203
239 237 236 249 256 221 245 237 255 253 251 258 254 272 273 286 274 245 233 231 216 212 203 208 207 210 211 206 217 204 210 206
146 222 213 227 259 203 225 225 225 239 242 240 254 263 281 287 283 270 257 227 221 209 205 208 211 205 212 214 208 212 186 166
246 216 254 224 270 147 184 215 246 249 247 252 264 260 254 278 278 272 267 261 232 222 219 212 213 217 217 218 217 213 202 202
255 167 235 260 255 257 257 258 252 249 260 267 267 264 267 259 277 276 270 266 256 249 226 226 219 216 226 220 218 222 214 215
262 263 262 264 265 265 272 264 255 251 257 267 269 267 267 253 253 262 280 267 253 240 238 221 216 218 218 220 219 224 223 221
270 268 271 271 270 269 260 264 260 263 260 261 265 262 256 265 265 260 278 272 256 233 232 223 220 226 233 224 226 228 230 226
267 285 268 264 264 255 248 239 256 260 258 261 267 274 270 288 286 297 285 277 276 271 254 238 237 226 226 238 241 223 222 220
265 273 273 292 287 281 275 266 243 254 257 258 257 276 307 300 296 292 281 287 276 264 261 241 237 236 232 229 231 224 226 224